EWG78B EGLL-EDDH

Flight info

Callsign EWG78B
Flight time 1h 10m
Altitude 37000
Route BPK Q295 SOMVA DCT MAVAS DCT GASTU DCT OSTOR T904 RIBSO RIBSO7A
Aircraft B738/M-SDE2E3FGHIRWXY/LB1

Departure

Time 2026-05-07 18:59
Airport London Heathrow Airport (EGLL)

Arrival

Time 2026-05-07 20:09
Airport Hamburg Helmut Schmidt Airport (EDDH)
Time Latitude Longitude Altitude Speed Heading
2026-05-07 18:06 51.46820 -0.44674 85 ft 0 kts 268°
2026-05-07 18:45 51.46820 -0.44664 85 ft 4 kts 266°
2026-05-07 18:45 51.46823 -0.44621 87 ft 4 kts 257°
2026-05-07 18:45 51.46831 -0.44581 88 ft 4 kts 236°
2026-05-07 18:46 51.46849 -0.44555 89 ft 3 kts 185°
2026-05-07 18:46 51.46853 -0.44555 89 ft 1 kts 180°
2026-05-07 18:51 51.46852 -0.44554 89 ft 1 kts 180°
2026-05-07 18:51 51.46827 -0.44554 88 ft 7 kts 179°
2026-05-07 18:51 51.46800 -0.44554 86 ft 5 kts 179°
2026-05-07 18:51 51.46739 -0.44552 87 ft 12 kts 179°
2026-05-07 18:52 51.46666 -0.44641 87 ft 18 kts 261°
2026-05-07 18:52 51.46662 -0.44875 86 ft 24 kts 269°
2026-05-07 18:52 51.46660 -0.45132 89 ft 23 kts 271°
2026-05-07 18:52 51.46660 -0.45381 85 ft 22 kts 270°
2026-05-07 18:53 51.46660 -0.45624 85 ft 21 kts 269°
2026-05-07 18:53 51.46659 -0.45859 89 ft 21 kts 269°
2026-05-07 18:53 51.46656 -0.46087 88 ft 20 kts 269°
2026-05-07 18:53 51.46656 -0.46309 85 ft 20 kts 272°
2026-05-07 18:54 51.46657 -0.46602 87 ft 29 kts 269°
2026-05-07 18:54 51.46655 -0.46920 85 ft 28 kts 270°
2026-05-07 18:54 51.46654 -0.47218 85 ft 26 kts 269°
2026-05-07 18:54 51.46652 -0.47496 85 ft 24 kts 270°
2026-05-07 18:55 51.46652 -0.47757 85 ft 22 kts 270°
2026-05-07 18:55 51.46652 -0.47939 85 ft 10 kts 270°
2026-05-07 18:55 51.46651 -0.48027 85 ft 6 kts 270°
2026-05-07 18:55 51.46651 -0.48096 85 ft 6 kts 270°
2026-05-07 18:56 51.46651 -0.48141 85 ft 0 kts 270°
2026-05-07 18:56 51.46651 -0.48156 85 ft 6 kts 270°
2026-05-07 18:56 51.46652 -0.48292 85 ft 18 kts 270°
2026-05-07 18:57 51.46651 -0.48544 85 ft 24 kts 269°
2026-05-07 18:57 51.46646 -0.48714 88 ft 8 kts 250°
2026-05-07 18:57 51.46601 -0.48764 88 ft 8 kts 199°
2026-05-07 18:57 51.46540 -0.48780 85 ft 12 kts 173°
2026-05-07 18:58 51.46483 -0.48653 88 ft 19 kts 92°
2026-05-07 18:58 51.46478 -0.48094 86 ft 85 kts 90°
2026-05-07 18:58 51.46481 -0.46796 91 ft 145 kts 94°
2026-05-07 18:58 51.46456 -0.45073 536 ft 160 kts 94°
2026-05-07 18:59 51.46469 -0.43222 1244 ft 170 kts 90°
2026-05-07 18:59 51.46708 -0.41362 1990 ft 175 kts 70°
2026-05-07 18:59 51.47375 -0.39543 2291 ft 205 kts 51°
2026-05-07 18:59 51.48334 -0.37737 2519 ft 225 kts 51°
2026-05-07 19:00 51.49377 -0.35728 2931 ft 234 kts 51°
2026-05-07 19:00 51.50424 -0.33715 3570 ft 235 kts 51°
2026-05-07 19:00 51.51483 -0.31681 4183 ft 239 kts 50°
2026-05-07 19:00 51.52420 -0.29487 4810 ft 239 kts 68°
2026-05-07 19:01 51.52973 -0.26905 5269 ft 254 kts 72°
2026-05-07 19:01 51.53545 -0.24162 5555 ft 270 kts 71°
2026-05-07 19:01 51.54161 -0.21254 5785 ft 271 kts 70°
2026-05-07 19:01 51.55120 -0.18741 5992 ft 271 kts 41°
2026-05-07 19:02 51.56817 -0.17450 6038 ft 270 kts 11°
2026-05-07 19:02 51.58671 -0.16884 6028 ft 271 kts 13°
2026-05-07 19:02 51.60500 -0.16408 6210 ft 276 kts
2026-05-07 19:02 51.62404 -0.16057 6985 ft 276 kts
2026-05-07 19:03 51.64293 -0.15428 7884 ft 277 kts 13°
2026-05-07 19:03 51.66155 -0.14686 8663 ft 283 kts 14°
2026-05-07 19:03 51.68112 -0.13841 9430 ft 290 kts 14°
2026-05-07 19:03 51.70046 -0.12970 10285 ft 296 kts 15°
2026-05-07 19:04 51.72083 -0.12030 10901 ft 311 kts 18°
2026-05-07 19:04 51.73962 -0.10306 11764 ft 315 kts 45°
2026-05-07 19:04 51.75165 -0.07428 12650 ft 316 kts 70°
2026-05-07 19:04 51.75688 -0.03900 13280 ft 329 kts 83°
2026-05-07 19:05 51.75992 -0.00092 13533 ft 353 kts 85°
2026-05-07 19:05 51.76267 0.03908 14198 ft 363 kts 85°
2026-05-07 19:05 51.76560 0.07976 14798 ft 368 kts 84°
2026-05-07 19:05 51.76885 0.12152 14977 ft 383 kts 84°
2026-05-07 19:06 51.77237 0.16523 15077 ft 402 kts 84°
2026-05-07 19:06 51.77845 0.24149 16089 ft 404 kts 84°
2026-05-07 19:06 51.78300 0.30009 17760 ft 390 kts 83°
2026-05-07 19:07 51.78647 0.34321 18688 ft 388 kts 83°
2026-05-07 19:07 51.78874 0.37118 19056 ft 392 kts 83°
2026-05-07 19:07 51.79232 0.41564 19585 ft 397 kts 83°
2026-05-07 19:07 51.79594 0.46078 20158 ft 401 kts 83°
2026-05-07 19:08 51.79950 0.50562 20730 ft 405 kts 83°
2026-05-07 19:08 51.80309 0.55087 21272 ft 408 kts 83°
2026-05-07 19:08 51.80663 0.59598 21806 ft 412 kts 83°
2026-05-07 19:08 51.81084 0.64260 22335 ft 416 kts 78°
2026-05-07 19:09 51.81904 0.68693 22810 ft 420 kts 68°
2026-05-07 19:09 51.83075 0.73039 23336 ft 423 kts 65°
2026-05-07 19:09 51.84270 0.77360 23790 ft 426 kts 66°
2026-05-07 19:09 51.85432 0.81681 24185 ft 430 kts 66°
2026-05-07 19:10 51.86605 0.86146 24607 ft 432 kts 67°
2026-05-07 19:10 51.87769 0.90651 25030 ft 435 kts 67°
2026-05-07 19:10 51.88934 0.95202 25774 ft 427 kts 67°
2026-05-07 19:10 51.90037 0.99526 26631 ft 418 kts 67°
2026-05-07 19:11 51.91138 1.03847 27358 ft 412 kts 67°
2026-05-07 19:11 51.92249 1.08207 27736 ft 417 kts 67°
2026-05-07 19:11 51.93346 1.12520 27959 ft 423 kts 67°
2026-05-07 19:11 51.94476 1.16968 28147 ft 431 kts 67°
2026-05-07 19:12 51.95627 1.21502 28305 ft 439 kts 67°
2026-05-07 19:12 51.96796 1.26121 28451 ft 446 kts 67°
2026-05-07 19:12 51.97982 1.30811 28609 ft 453 kts 67°
2026-05-07 19:12 51.99185 1.35582 28751 ft 460 kts 67°
2026-05-07 19:13 52.00401 1.40416 28909 ft 466 kts 68°
2026-05-07 19:13 52.01632 1.45318 29049 ft 472 kts 68°
2026-05-07 19:13 52.04138 1.55334 29293 ft 482 kts 68°
2026-05-07 19:14 52.05385 1.60337 30117 ft 472 kts 68°
2026-05-07 19:14 52.06577 1.65127 30759 ft 464 kts 68°
2026-05-07 19:14 52.07780 1.69973 31334 ft 459 kts 68°
2026-05-07 19:14 52.08969 1.74772 31788 ft 456 kts 68°
2026-05-07 19:15 52.10151 1.79554 32111 ft 456 kts 68°
2026-05-07 19:15 52.11334 1.84349 32401 ft 457 kts 68°
2026-05-07 19:15 52.12515 1.89151 32723 ft 457 kts 68°
2026-05-07 19:15 52.13694 1.93949 33072 ft 457 kts 68°
2026-05-07 19:16 52.16065 2.03636 33097 ft 461 kts 68°
2026-05-07 19:16 52.18414 2.13276 33079 ft 454 kts 69°
2026-05-07 19:17 52.20734 2.22835 33105 ft 454 kts 69°
2026-05-07 19:17 52.23051 2.32429 33102 ft 455 kts 69°
2026-05-07 19:18 52.25366 2.42056 33094 ft 456 kts 69°
2026-05-07 19:18 52.27669 2.51673 33096 ft 456 kts 69°
2026-05-07 19:19 52.29973 2.61330 33093 ft 455 kts 69°
2026-05-07 19:19 52.31995 2.71108 33101 ft 453 kts 75°
2026-05-07 19:20 52.33683 2.80938 33095 ft 451 kts 75°
2026-05-07 19:20 52.34999 2.88606 33099 ft 450 kts 75°
2026-05-07 19:21 52.36705 2.98382 33089 ft 449 kts 75°
2026-05-07 19:21 52.38425 3.08207 33097 ft 449 kts 75°
2026-05-07 19:22 52.40197 3.17988 33098 ft 449 kts 69°
2026-05-07 19:22 52.42737 3.27335 33102 ft 449 kts 65°
2026-05-07 19:23 52.45434 3.36586 33106 ft 450 kts 65°
2026-05-07 19:23 52.48101 3.45889 33119 ft 451 kts 66°
2026-05-07 19:24 52.50718 3.55201 33098 ft 450 kts 66°
2026-05-07 19:24 52.53316 3.64546 33099 ft 449 kts 66°
2026-05-07 19:25 52.55887 3.73836 33101 ft 448 kts 66°
2026-05-07 19:25 52.58446 3.83122 33100 ft 447 kts 66°
2026-05-07 19:26 52.61000 3.92423 33102 ft 446 kts 66°
2026-05-07 19:26 52.63545 4.01723 33090 ft 445 kts 66°
2026-05-07 19:27 52.66078 4.11019 33101 ft 445 kts 66°
2026-05-07 19:27 52.68571 4.20208 33102 ft 445 kts 66°
2026-05-07 19:28 52.71107 4.29588 33101 ft 445 kts 67°
2026-05-07 19:28 52.73615 4.38907 33096 ft 444 kts 67°
2026-05-07 19:29 52.76116 4.48233 33096 ft 444 kts 67°
2026-05-07 19:29 52.78602 4.57545 33103 ft 443 kts 67°
2026-05-07 19:30 52.81078 4.66858 33100 ft 442 kts 67°
2026-05-07 19:30 52.83519 4.76073 33104 ft 442 kts 67°
2026-05-07 19:31 52.85975 4.85387 33104 ft 442 kts 68°
2026-05-07 19:31 52.88410 4.94654 33103 ft 441 kts 68°
2026-05-07 19:32 52.90850 5.03983 33116 ft 441 kts 68°
2026-05-07 19:32 52.93277 5.13298 33102 ft 440 kts 68°
2026-05-07 19:33 52.95693 5.22610 33106 ft 439 kts 68°
2026-05-07 19:33 52.98096 5.31910 33106 ft 438 kts 68°
2026-05-07 19:34 53.00417 5.40927 33106 ft 437 kts 68°
2026-05-07 19:34 53.02798 5.50219 33107 ft 437 kts 68°
2026-05-07 19:35 53.05170 5.59511 33102 ft 437 kts 68°
2026-05-07 19:35 53.07534 5.68814 33104 ft 437 kts 68°
2026-05-07 19:36 53.09895 5.78142 33105 ft 438 kts 68°
2026-05-07 19:36 53.12251 5.87489 33115 ft 437 kts 68°
2026-05-07 19:37 53.14591 5.96809 33096 ft 435 kts 69°
2026-05-07 19:37 53.16911 6.06090 33095 ft 432 kts 69°
2026-05-07 19:38 53.19207 6.15312 33094 ft 430 kts 69°
2026-05-07 19:38 53.21500 6.24562 33120 ft 440 kts 69°
2026-05-07 19:39 53.23859 6.34127 33121 ft 451 kts 69°
2026-05-07 19:39 53.26253 6.43876 33105 ft 455 kts 69°
2026-05-07 19:40 53.28645 6.53644 33111 ft 454 kts 69°
2026-05-07 19:40 53.31022 6.63401 33106 ft 453 kts 69°
2026-05-07 19:41 53.33388 6.73161 33096 ft 452 kts 69°
2026-05-07 19:41 53.35721 6.82827 33124 ft 452 kts 69°
2026-05-07 19:42 53.38094 6.92706 33126 ft 453 kts 69°
2026-05-07 19:42 53.40441 7.02523 33130 ft 454 kts 69°
2026-05-07 19:43 53.42785 7.12367 33132 ft 455 kts 69°
2026-05-07 19:43 53.45130 7.22256 32929 ft 459 kts 69°
2026-05-07 19:44 53.46305 7.27234 32647 ft 458 kts 69°
2026-05-07 19:44 53.47477 7.32205 32395 ft 457 kts 69°
2026-05-07 19:44 53.48644 7.37167 32132 ft 458 kts 69°
2026-05-07 19:44 53.49810 7.42135 31870 ft 459 kts 69°
2026-05-07 19:45 53.50982 7.47143 31627 ft 459 kts 69°
2026-05-07 19:45 53.52143 7.52113 31367 ft 455 kts 69°
2026-05-07 19:45 53.53292 7.57042 31000 ft 449 kts 69°
2026-05-07 19:45 53.54430 7.61937 30219 ft 451 kts 69°
2026-05-07 19:46 53.55568 7.66849 29427 ft 450 kts 69°
2026-05-07 19:46 53.56687 7.71687 28928 ft 442 kts 69°
2026-05-07 19:46 53.57798 7.76496 28381 ft 437 kts 69°
2026-05-07 19:46 53.58888 7.81232 27837 ft 432 kts 69°
2026-05-07 19:47 53.59968 7.85928 27288 ft 427 kts 69°
2026-05-07 19:47 53.61031 7.90565 26783 ft 424 kts 69°
2026-05-07 19:47 53.62091 7.95195 26250 ft 426 kts 69°
2026-05-07 19:47 53.63176 7.99948 25743 ft 443 kts 69°
2026-05-07 19:48 53.64210 8.04816 25165 ft 439 kts 71°
2026-05-07 19:48 53.65140 8.09616 24630 ft 435 kts 72°
2026-05-07 19:48 53.66056 8.14527 24089 ft 433 kts 72°
2026-05-07 19:48 53.66961 8.19420 23516 ft 437 kts 72°
2026-05-07 19:49 53.67865 8.24287 22881 ft 431 kts 72°
2026-05-07 19:49 53.68750 8.29019 22340 ft 414 kts 72°
2026-05-07 19:49 53.69603 8.33560 21922 ft 398 kts 72°
2026-05-07 19:49 53.70410 8.37845 21703 ft 379 kts 72°
2026-05-07 19:50 53.71190 8.41989 21351 ft 365 kts 72°
2026-05-07 19:50 53.71956 8.46065 20637 ft 363 kts 72°
2026-05-07 19:50 53.72720 8.50136 20020 ft 365 kts 72°
2026-05-07 19:50 53.73484 8.54220 19600 ft 364 kts 72°
2026-05-07 19:51 53.74234 8.58235 19134 ft 355 kts 72°
2026-05-07 19:51 53.74977 8.62227 18506 ft 358 kts 72°
2026-05-07 19:51 53.75723 8.66236 18018 ft 356 kts 72°
2026-05-07 19:51 53.76459 8.70207 17654 ft 351 kts 72°
2026-05-07 19:52 53.77184 8.74123 17233 ft 349 kts 72°
2026-05-07 19:52 53.77909 8.78049 16729 ft 350 kts 72°
2026-05-07 19:52 53.78627 8.81947 16415 ft 345 kts 72°
2026-05-07 19:52 53.79337 8.85807 16014 ft 343 kts 72°
2026-05-07 19:53 53.79806 8.88362 15709 ft 344 kts 72°
2026-05-07 19:53 53.80513 8.92209 15385 ft 340 kts 72°
2026-05-07 19:53 53.81208 8.96008 15013 ft 338 kts 73°
2026-05-07 19:53 53.81899 8.99791 14562 ft 333 kts 73°
2026-05-07 19:54 53.82558 9.03527 14074 ft 331 kts 77°
2026-05-07 19:54 53.82825 9.07379 13648 ft 330 kts 92°
2026-05-07 19:54 53.82653 9.11088 13285 ft 328 kts 96°
2026-05-07 19:54 53.82412 9.14918 12897 ft 326 kts 96°
2026-05-07 19:55 53.82183 9.18601 12541 ft 324 kts 96°
2026-05-07 19:55 53.81960 9.22374 12177 ft 321 kts 96°
2026-05-07 19:55 53.81747 9.26094 11804 ft 312 kts 96°
2026-05-07 19:55 53.81544 9.29689 11458 ft 302 kts 96°
2026-05-07 19:56 53.81309 9.33161 11113 ft 293 kts 103°
2026-05-07 19:56 53.80487 9.36173 10997 ft 275 kts 124°
2026-05-07 19:56 53.79441 9.38772 10890 ft 260 kts 124°
2026-05-07 19:56 53.78430 9.41273 10632 ft 257 kts 124°
2026-05-07 19:57 53.77432 9.43758 10423 ft 254 kts 123°
2026-05-07 19:57 53.76338 9.46049 10166 ft 252 kts 142°
2026-05-07 19:57 53.74783 9.47172 9878 ft 252 kts 173°
2026-05-07 19:57 53.73054 9.46868 9588 ft 252 kts 199°
2026-05-07 19:58 53.71512 9.45467 9275 ft 253 kts 212°
2026-05-07 19:58 53.70016 9.43916 8993 ft 251 kts 200°
2026-05-07 19:58 53.68310 9.43667 8657 ft 248 kts 168°
2026-05-07 19:58 53.66640 9.44311 8342 ft 244 kts 165°
2026-05-07 19:59 53.64989 9.44989 7915 ft 245 kts 165°
2026-05-07 19:59 53.63333 9.45664 7508 ft 245 kts 164°
2026-05-07 19:59 53.61663 9.46342 7217 ft 244 kts 165°
2026-05-07 19:59 53.60023 9.47001 6879 ft 242 kts 165°
2026-05-07 20:00 53.58388 9.47654 6473 ft 242 kts 165°
2026-05-07 20:00 53.56754 9.48301 6097 ft 240 kts 165°
2026-05-07 20:00 53.55141 9.48939 5746 ft 237 kts 165°
2026-05-07 20:00 53.53548 9.49568 5397 ft 234 kts 165°
2026-05-07 20:01 53.51976 9.50145 5184 ft 225 kts 166°
2026-05-07 20:01 53.50488 9.50630 5068 ft 212 kts 167°
2026-05-07 20:01 53.49056 9.51080 4739 ft 209 kts 167°
2026-05-07 20:01 53.47654 9.51516 4421 ft 207 kts 167°
2026-05-07 20:02 53.46229 9.51954 4077 ft 205 kts 166°
2026-05-07 20:02 53.44880 9.52591 3995 ft 204 kts 147°
2026-05-07 20:02 53.43860 9.54183 3989 ft 201 kts 122°
2026-05-07 20:02 53.43483 9.56368 3929 ft 196 kts 90°
2026-05-07 20:03 53.43548 9.58642 3702 ft 194 kts 86°
2026-05-07 20:03 53.43834 9.60839 3283 ft 197 kts 61°
2026-05-07 20:03 53.44838 9.62417 3089 ft 203 kts 39°
2026-05-07 20:03 53.45876 9.64027 3030 ft 203 kts 49°
2026-05-07 20:04 53.46797 9.65790 3001 ft 199 kts 52°
2026-05-07 20:04 53.47679 9.67566 2995 ft 198 kts 52°
2026-05-07 20:04 53.48557 9.69355 3000 ft 199 kts 53°
2026-05-07 20:04 53.49441 9.71159 2983 ft 200 kts 52°
2026-05-07 20:05 53.50311 9.72936 2980 ft 200 kts 53°
2026-05-07 20:05 53.51192 9.74733 3005 ft 199 kts 53°
2026-05-07 20:05 53.52067 9.76515 3014 ft 195 kts 53°
2026-05-07 20:05 53.52911 9.78235 2872 ft 187 kts 53°
2026-05-07 20:06 53.53717 9.79876 2645 ft 177 kts 53°
2026-05-07 20:06 53.54485 9.81441 2412 ft 170 kts 53°
2026-05-07 20:06 53.55227 9.82952 2175 ft 165 kts 53°
2026-05-07 20:06 53.55954 9.84434 1952 ft 164 kts 53°
2026-05-07 20:07 53.56678 9.85908 1736 ft 165 kts 53°
2026-05-07 20:07 53.57410 9.87398 1498 ft 166 kts 52°
2026-05-07 20:07 53.58140 9.88882 1313 ft 163 kts 52°
2026-05-07 20:07 53.58855 9.90334 1051 ft 156 kts 53°
2026-05-07 20:08 53.59517 9.91681 827 ft 146 kts 52°
2026-05-07 20:08 53.60153 9.92974 644 ft 142 kts 51°
2026-05-07 20:08 53.60788 9.94263 468 ft 143 kts 51°
2026-05-07 20:08 53.61426 9.95556 257 ft 146 kts 50°
2026-05-07 20:09 53.62071 9.96870 62 ft 146 kts 50°
2026-05-07 20:09 53.62672 9.98088 41 ft 116 kts 50°
2026-05-07 20:09 53.63031 9.98815 45 ft 43 kts 53°
2026-05-07 20:10 53.63087 9.99185 46 ft 10 kts 92°
2026-05-07 20:10 53.63092 9.99346 46 ft 18 kts 75°
2026-05-07 20:10 53.63171 9.99563 45 ft 23 kts 51°
2026-05-07 20:10 53.63219 9.99664 47 ft 0 kts 52°
2026-05-07 20:11 53.63219 9.99665 47 ft 1 kts 52°
2026-05-07 20:11 53.63225 9.99678 47 ft 2 kts 53°
2026-05-07 20:11 53.63229 9.99712 47 ft 4 kts 94°
2026-05-07 20:12 53.63212 9.99757 47 ft 6 kts 137°
2026-05-07 20:12 53.63174 9.99798 47 ft 7 kts 149°
2026-05-07 20:12 53.63124 9.99848 45 ft 9 kts 149°
2026-05-07 20:12 53.63062 9.99898 47 ft 11 kts 153°
2026-05-07 20:13 53.62989 9.99960 47 ft 13 kts 153°
2026-05-07 20:13 53.62909 10.00041 47 ft 14 kts 128°
2026-05-07 20:13 53.62956 10.00143 45 ft 12 kts 31°
2026-05-07 20:13 53.63028 10.00220 47 ft 12 kts 32°
2026-05-07 20:14 53.63078 10.00287 47 ft 8 kts 69°
2026-05-07 20:14 53.63076 10.00325 47 ft 2 kts 97°
2026-05-07 20:14 53.63075 10.00348 47 ft 2 kts 94°
2026-05-07 20:14 53.63074 10.00372 47 ft 2 kts 94°
2026-05-07 20:15 53.63074 10.00378 47 ft 0 kts 94°